Regional Weather Roundup
Issued by NWS

Home | Current Version | Previous Version | Text Only | Print | Product List | Glossary On
Versions: 1 2 3 4 5 6 7 8 9 10 11 12 13 14 15 16 17 18 19 20 21 22 23 24 25 26 27 28 29 30 31 32 33 34 35 36 37 38 39 40 41 42 43 44 45 46 47 48 49 50
965
ASUS44 KLIX 210710
RWRLA
LOUISIANA WEATHER ROUNDUP
NATIONAL WEATHER SERVICE NEW ORLEANS LA
200 AM CDT MON APR 21 2014

NOTE: "FAIR" INDICATES FEW OR NO CLOUDS BELOW 12,000 FEET WITH NO
      SIGNIFICANT WEATHER AND/OR OBSTRUCTIONS TO VISIBILITY.
      SKY/WX - SKY CONDITION AND SIGNIFICANT WEATHER.
      TMP - AIR TEMPERATURE.    DP   - DEWPOINT TEMPERATURE.
      RH  - RELATIVE HUMIDITY.  PRES - PRESSURE.
      HX  - HEAT INDEX.         WCI  - WIND CHILL INDEX.

*  THESE STATIONS ARE NOT NWS OR FAA STATIONS AND ARE NOT UNDER
   NWS QUALITY CONTROL.

LAZ040-048-061>063-065-066-069-210800-
SOUTHEAST LOUISIANA

CITY           SKY/WX    TMP DP  RH WIND       PRES   REMARKS
N.O. AUDUBON   NOT AVBL
N.O. INTL ARPT PTCLDY    62  58  86 S7        30.14S
N.O. LAKEFRONT CLEAR     63  59  87 S3        30.14F
N.O. DOWNTOWN* FAIR      64  55  72 S5        30.14F
SLIDELL        PTCLDY    58  55  90 CALM      30.14S
BATON ROUGE    CLEAR     61  54  77 NE3       30.11S
BOOTHVILLE     CLEAR     60  57  89 CALM      30.13F
BELLE CHASSE   PTCLDY   N/A N/A N/A SW3       30.13F
BOGALUSA*        N/A     61  58  88 SW3       30.16S
GALLIANO*      PTSUNNY   64  60  84 E5        30.13F
NEW ROADS*     FAIR      61  57  85 CALM      30.11S
GONZALES*      FAIR      63  63  99 CALM      30.12S
HAMMOND*       CLOUDY    64  59  82 SE6       30.15S
HOUMA*           N/A     61  59  91 E5        30.13S
PORT FOURCHON* CLOUDY    66  61  82 E9        30.14F

$$

LAZ041-044-053-054-210800-
SOUTHWEST LOUISIANA

CITY           SKY/WX    TMP DP  RH WIND       PRES   REMARKS
LAKE CHARLES   CLEAR     59  58  96 SW3       30.10S
LAFAYETTE      CLEAR     63  59  87 CALM      30.11S
PATTERSON        N/A    N/A N/A N/A MISG        N/A
SALT POINT       N/A     66  64  93 CALM      30.10S
NEW IBERIA     CLEAR     62  60  93 CALM      30.11S
CHENAULT AIRPK CLEAR     60  57  91 CALM      30.11S FOG

$$

LAZ027-028-210800-
CENTRAL LOUISIANA

CITY           SKY/WX    TMP DP  RH WIND       PRES   REMARKS
FORT POLK      CLEAR     63  54  72 CALM      30.10S
ALEXANDRIA INT CLEAR     65  56  72 CALM      30.08F
ALEXANDRIA     CLEAR     57  55  93 CALM      30.09F

$$

LAZ001-002-210800-
NORTHWEST LOUISIANA

CITY           SKY/WX    TMP DP  RH WIND       PRES   REMARKS
SHREVEPORT     CLOUDY    67  57  70 SW6       30.06S
BARKSDALE AFB  CLOUDY    69  57  65 S7        30.06F
DTN SHREVEPORT CLOUDY    69  55  60 SW9       30.06F

$$

LAZ014-016-210800-
NORTHEAST LOUISIANA

CITY           SKY/WX    TMP DP  RH WIND       PRES   REMARKS
MONROE         CLEAR     57  55  93 CALM      30.08F
TALLULAH       CLEAR     61  55  81 CALM      30.10S

$$




USA.gov is the U.S. government's official web portal to all federal, state and local government web resources and services.